�������l�o���
Date,Time,MP-1(��Sv/h),MP-2(��Sv/h),MP-3(��Sv/h),MP-4(��Sv/h),MP-5(��Sv/h),MP-6(��Sv/h),MP-7(��Sv/h),MP-8(��Sv/h),����,����(m/s),���J
2018/01/25,00:00,0.736,1.240,0.802,1.457,0.981,0.441,0.805,0.797,���쐼,4.3,��
2018/01/25,00:10,0.734,1.240,0.803,1.457,0.977,0.441,0.804,0.798,���쐼,5.2,��
2018/01/25,00:20,0.733,1.240,0.804,1.456,0.977,0.442,0.806,0.798,��,4.6,��
2018/01/25,00:30,0.733,1.240,0.803,1.455,0.978,0.443,0.805,0.798,���쐼,4.5,��
2018/01/25,00:40,0.733,1.240,0.806,1.456,0.978,0.441,0.804,0.797,���쐼,5.3,��
2018/01/25,00:50,0.732,1.241,0.806,1.458,0.979,0.442,0.803,0.798,���쐼,4.7,��
2018/01/25,01:00,0.732,1.239,0.804,1.456,0.979,0.442,0.806,0.799,���쐼,4.2,��
2018/01/25,01:10,0.732,1.237,0.806,1.456,0.980,0.444,0.805,0.799,���쐼,4.1,��
2018/01/25,01:20,0.732,1.240,0.805,1.457,0.981,0.442,0.805,0.796,���쐼,4.9,��
2018/01/25,01:30,0.732,1.241,0.805,1.460,0.978,0.443,0.805,0.799,���쐼,4.9,��
2018/01/25,01:40,0.732,1.239,0.805,1.455,0.982,0.444,0.804,0.797,���쐼,5.1,��
2018/01/25,01:50,0.732,1.240,0.803,1.454,0.979,0.441,0.805,0.798,���쐼,5.9,��
2018/01/25,02:00,0.731,1.239,0.803,1.457,0.980,0.442,0.805,0.799,��,5.3,��
2018/01/25,02:10,0.731,1.238,0.805,1.456,0.979,0.443,0.805,0.800,���쐼,5.0,��
2018/01/25,02:20,0.731,1.239,0.806,1.455,0.981,0.442,0.804,0.798,���쐼,6.4,��
2018/01/25,02:30,0.730,1.239,0.806,1.457,0.981,0.442,0.803,0.797,���쐼,5.3,��
2018/01/25,02:40,0.732,1.237,0.804,1.456,0.979,0.442,0.805,0.797,���쐼,6.5,��
2018/01/25,02:50,0.730,1.240,0.805,1.457,0.977,0.441,0.804,0.798,���쐼,7.9,��
2018/01/25,03:00,0.732,1.237,0.804,1.460,0.977,0.442,0.806,0.798,���쐼,7.5,��
2018/01/25,03:10,0.731,1.239,0.804,1.457,0.975,0.444,0.805,0.799,���쐼,6.8,��
2018/01/25,03:20,0.734,1.238,0.805,1.459,0.976,0.442,0.804,0.800,��,7.6,��
2018/01/25,03:30,0.732,1.239,0.803,1.458,0.978,0.442,0.806,0.797,��,9.0,��
2018/01/25,03:40,0.731,1.239,0.804,1.459,0.979,0.442,0.805,0.798,���쐼,8.9,��
2018/01/25,03:50,0.731,1.241,0.801,1.458,0.978,0.442,0.805,0.797,���쐼,8.9,��
2018/01/25,04:00,0.732,1.240,0.803,1.458,0.980,0.442,0.803,0.799,��,8.4,��
2018/01/25,04:10,0.734,1.239,0.803,1.455,0.981,0.442,0.804,0.799,��,8.1,��
2018/01/25,04:20,0.733,1.241,0.802,1.456,0.977,0.440,0.804,0.799,��,9.0,��
2018/01/25,04:30,0.732,1.241,0.803,1.456,0.976,0.442,0.805,0.798,��,8.6,��
2018/01/25,04:40,0.733,1.240,0.802,1.456,0.979,0.441,0.803,0.798,��,9.2,��
2018/01/25,04:50,0.735,1.238,0.802,1.456,0.979,0.443,0.802,0.798,��,8.5,��
2018/01/25,05:00,0.732,1.236,0.805,1.454,0.980,0.442,0.803,0.799,��,8.7,��
2018/01/25,05:10,0.733,1.240,0.801,1.458,0.979,0.443,0.805,0.799,��,8.0,��
2018/01/25,05:20,0.733,1.241,0.804,1.458,0.981,0.443,0.805,0.800,��,10.0,��
2018/01/25,05:30,0.733,1.239,0.803,1.457,0.981,0.443,0.806,0.800,��,9.4,��
2018/01/25,05:40,0.732,1.240,0.803,1.457,0.979,0.442,0.805,0.800,��,8.5,��
2018/01/25,05:50,0.732,1.239,0.804,1.456,0.981,0.442,0.804,0.800,��,8.8,��
2018/01/25,06:00,0.733,1.240,0.802,1.458,0.983,0.444,0.805,0.798,��,10.4,��
2018/01/25,06:10,0.732,1.242,0.804,1.457,0.982,0.443,0.806,0.800,��,8.9,��
2018/01/25,06:20,0.733,1.237,0.804,1.460,0.981,0.442,0.804,0.800,���쐼,9.6,��
2018/01/25,06:30,0.732,1.240,0.802,1.460,0.981,0.441,0.805,0.800,��,9.6,��
2018/01/25,06:40,0.732,1.239,0.804,1.458,0.981,0.442,0.806,0.799,���쐼,8.7,��
2018/01/25,06:50,0.732,1.240,0.803,1.459,0.980,0.443,0.807,0.800,��,8.4,��
2018/01/25,07:00,0.731,1.239,0.803,1.460,0.976,0.443,0.808,0.799,��,7.5,��
2018/01/25,07:10,0.731,1.239,0.804,1.455,0.978,0.443,0.807,0.799,��,7.6,��
2018/01/25,07:20,0.729,1.237,0.803,1.459,0.979,0.444,0.807,0.800,��,8.0,��
2018/01/25,07:30,0.732,1.238,0.804,1.461,0.978,0.445,0.807,0.800,��,8.1,��
2018/01/25,07:40,0.731,1.239,0.803,1.461,0.981,0.444,0.809,0.800,��,7.4,��
2018/01/25,07:50,0.733,1.238,0.805,1.460,0.981,0.444,0.810,0.798,��,6.0,��
2018/01/25,08:00,0.731,1.237,0.804,1.458,0.980,0.444,0.808,0.802,���k��,9.9,��
2018/01/25,08:10,0.733,1.238,0.803,1.459,0.982,0.442,0.807,0.800,���k��,8.2,��
2018/01/25,08:20,0.732,1.240,0.804,1.463,0.981,0.444,0.808,0.800,���k��,8.0,��
2018/01/25,08:30,0.733,1.238,0.804,1.462,0.983,0.442,0.806,0.800,���k��,7.2,��
2018/01/25,08:40,0.731,1.238,0.806,1.461,0.983,0.443,0.808,0.801,���k��,8.5,��
2018/01/25,08:50,0.735,1.238,0.804,1.462,0.982,0.445,0.807,0.801,�k��,9.1,��
2018/01/25,09:00,0.733,1.236,0.806,1.463,0.983,0.445,0.808,0.802,�k��,10.2,��
2018/01/25,09:10,0.734,1.238,0.806,1.462,0.983,0.444,0.808,0.802,�k��,9.2,��
2018/01/25,09:20,0.733,1.239,0.805,1.461,0.982,0.443,0.809,0.801,�k�k��,9.2,��
2018/01/25,09:30,0.734,1.241,0.807,1.465,0.983,0.444,0.808,0.800,�k�k��,9.0,��
2018/01/25,09:40,0.733,1.243,0.808,1.465,0.984,0.443,0.808,0.801,�k�k��,10.5,��
2018/01/25,09:50,0.733,1.238,0.806,1.462,0.985,0.444,0.808,0.801,�k��,8.5,��
2018/01/25,10:00,0.735,1.240,0.806,1.464,0.986,0.442,0.807,0.802,�k��,7.4,��
2018/01/25,10:10,0.735,1.243,0.806,1.466,0.985,0.445,0.806,0.800,�k��,9.9,��
2018/01/25,10:20,0.734,1.240,0.807,1.463,0.985,0.443,0.807,0.802,�k��,8.5,��
2018/01/25,10:30,0.734,1.240,0.807,1.466,0.986,0.445,0.808,0.801,�k��,7.8,��
2018/01/25,10:40,0.735,1.242,0.806,1.463,0.986,0.444,0.809,0.801,���k��,11.8,��
2018/01/25,10:50,0.736,1.240,0.808,1.465,0.986,0.442,0.807,0.802,���k��,9.7,��
2018/01/25,11:00,0.736,1.238,0.807,1.466,0.988,0.444,0.809,0.802,���k��,12.1,��
2018/01/25,11:10,0.739,1.240,0.807,1.464,0.986,0.444,0.809,0.802,���k��,8.7,��
2018/01/25,11:20,0.740,1.243,0.809,1.464,0.986,0.444,0.810,0.802,���k��,11.7,��
2018/01/25,11:30,0.737,1.246,0.809,1.467,0.986,0.443,0.809,0.801,���k��,11.8,��
2018/01/25,11:40,0.739,1.246,0.810,1.467,0.989,0.445,0.811,0.802,���k��,11.1,��
2018/01/25,11:50,0.739,1.247,0.808,1.466,0.989,0.443,0.810,0.803,���k��,11.6,��
2018/01/25,12:00,0.740,1.247,0.809,1.469,0.989,0.443,0.809,0.803,���k��,8.7,��
2018/01/25,12:10,0.740,1.245,0.811,1.466,0.989,0.444,0.808,0.803,���k��,10.6,��
2018/01/25,12:20,0.739,1.247,0.812,1.467,0.991,0.443,0.810,0.801,���k��,10.2,��
2018/01/25,12:30,0.741,1.247,0.813,1.466,0.990,0.444,0.807,0.804,���k��,11.3,��
2018/01/25,12:40,0.742,1.249,0.813,1.471,0.992,0.444,0.810,0.801,���k��,10.5,��
2018/01/25,12:50,0.744,1.250,0.813,1.469,0.993,0.446,0.809,0.804,���k��,8.7,��
2018/01/25,13:00,0.743,1.249,0.814,1.467,0.994,0.444,0.811,0.802,�k��,13.0,��
2018/01/25,13:10,0.744,1.249,0.811,1.469,0.993,0.445,0.812,0.804,���k��,11.6,��
2018/01/25,13:20,0.745,1.250,0.813,1.470,0.994,0.445,0.811,0.802,���k��,9.8,��
2018/01/25,13:30,0.743,1.250,0.813,1.472,0.997,0.444,0.813,0.804,���k��,13.0,��
2018/01/25,13:40,0.745,1.247,0.814,1.471,0.995,0.446,0.811,0.804,���k��,13.5,��
2018/01/25,13:50,0.744,1.251,0.814,1.469,0.995,0.445,0.813,0.802,��,10.8,��
2018/01/25,14:00,0.744,1.251,0.815,1.471,0.996,0.445,0.813,0.804,���k��,11.3,��
2018/01/25,14:10,0.746,1.253,0.813,1.474,0.995,0.445,0.813,0.803,���k��,11.7,��
2018/01/25,14:20,0.746,1.253,0.816,1.472,0.994,0.446,0.811,0.804,���k��,10.7,��
2018/01/25,14:30,0.747,1.255,0.817,1.472,0.993,0.446,0.809,0.805,���k��,10.2,��
2018/01/25,14:40,0.747,1.256,0.815,1.471,0.998,0.445,0.812,0.804,�k��,9.5,��
2018/01/25,14:50,0.746,1.254,0.815,1.474,0.998,0.448,0.811,0.805,�k��,13.1,��
2018/01/25,15:00,0.746,1.254,0.816,1.475,0.986,0.446,0.813,0.804,���k��,8.0,��
2018/01/25,15:10,0.746,1.253,0.817,1.473,0.989,0.446,0.812,0.804,���k��,8.2,��
2018/01/25,15:20,0.747,1.253,0.816,1.473,0.995,0.446,0.810,0.804,���k��,10.7,��
2018/01/25,15:30,0.747,1.258,0.821,1.473,0.999,0.444,0.810,0.804,��,7.9,��
2018/01/25,15:40,0.747,1.253,0.817,1.474,1.000,0.446,0.812,0.805,���k��,9.6,��
2018/01/25,15:50,0.747,1.256,0.818,1.476,1.002,0.447,0.812,0.803,���k��,10.8,��
2018/01/25,16:00,0.746,1.256,0.817,1.474,1.002,0.447,0.814,0.804,���k��,7.6,��
2018/01/25,16:10,0.746,1.257,0.819,1.475,1.001,0.447,0.813,0.805,���k��,7.0,��
2018/01/25,16:20,0.742,1.257,0.816,1.475,1.001,0.447,0.813,0.803,���k��,7.5,��
2018/01/25,16:30,0.744,1.255,0.816,1.478,1.003,0.446,0.812,0.804,���k��,5.8,��
2018/01/25,16:40,0.745,1.258,0.814,1.478,0.999,0.447,0.811,0.804,���k��,5.5,��
2018/01/25,16:50,0.746,1.258,0.814,1.476,1.000,0.446,0.812,0.803,���k��,9.0,��
2018/01/25,17:00,0.743,1.258,0.816,1.474,0.999,0.445,0.812,0.804,���k��,4.4,��
2018/01/25,17:10,0.743,1.254,0.815,1.475,0.996,0.445,0.813,0.802,���k��,6.5,��
2018/01/25,17:20,0.742,1.257,0.816,1.476,0.998,0.445,0.813,0.802,���k��,6.1,��
2018/01/25,17:30,0.744,1.256,0.816,1.475,0.999,0.444,0.812,0.803,���k��,5.1,��
2018/01/25,17:40,0.744,1.258,0.815,1.475,0.999,0.443,0.812,0.804,��,6.6,��
2018/01/25,17:50,0.743,1.256,0.813,1.474,1.000,0.443,0.813,0.803,��,5.3,��
2018/01/25,18:00,0.745,1.258,0.817,1.476,0.997,0.445,0.812,0.803,���k��,5.7,��
2018/01/25,18:10,0.744,1.254,0.816,1.475,0.997,0.443,0.813,0.804,���k��,5.3,��
2018/01/25,18:20,0.744,1.257,0.818,1.476,0.997,0.445,0.813,0.804,��,2.6,��
2018/01/25,18:30,0.744,1.258,0.817,1.475,0.996,0.444,0.811,0.804,���k��,2.8,��
2018/01/25,18:40,0.742,1.258,0.817,1.477,0.998,0.446,0.811,0.804,��,5.4,��
2018/01/25,18:50,0.746,1.258,0.818,1.476,0.998,0.446,0.814,0.803,��,3.5,��
2018/01/25,19:00,0.744,1.255,0.818,1.477,0.996,0.446,0.810,0.803,��,4.3,��
2018/01/25,19:10,0.742,1.254,0.817,1.479,0.997,0.446,0.812,0.804,��,3.8,��
2018/01/25,19:20,0.741,1.257,0.816,1.475,1.001,0.443,0.811,0.804,��,4.7,��
2018/01/25,19:30,0.741,1.256,0.817,1.477,1.000,0.447,0.812,0.803,���쐼,5.4,��
2018/01/25,19:40,0.741,1.255,0.818,1.475,0.999,0.445,0.813,0.802,���쐼,5.8,��
2018/01/25,19:50,0.742,1.256,0.815,1.475,0.998,0.447,0.814,0.801,��,6.5,��
2018/01/25,20:00,0.739,1.257,0.818,1.475,0.997,0.447,0.812,0.802,��,6.7,��
2018/01/25,20:10,0.743,1.257,0.816,1.474,0.999,0.445,0.811,0.803,���쐼,6.7,��
2018/01/25,20:20,0.743,1.256,0.815,1.473,0.999,0.445,0.812,0.803,���쐼,7.3,��
2018/01/25,20:30,0.744,1.256,0.814,1.475,0.997,0.445,0.812,0.802,��,6.4,��
2018/01/25,20:40,0.742,1.255,0.815,1.476,0.998,0.446,0.811,0.801,���쐼,5.0,��
2018/01/25,20:50,0.742,1.255,0.816,1.475,0.997,0.445,0.811,0.801,���쐼,5.4,��
2018/01/25,21:00,0.742,1.257,0.816,1.478,0.997,0.444,0.812,0.803,���쐼,5.6,��
2018/01/25,21:10,0.742,1.255,0.817,1.478,0.996,0.446,0.813,0.801,���쐼,5.2,��
2018/01/25,21:20,0.740,1.253,0.816,1.476,0.996,0.446,0.811,0.803,���쐼,4.9,��
2018/01/25,21:30,0.740,1.257,0.817,1.478,0.997,0.445,0.813,0.802,���쐼,6.9,��
2018/01/25,21:40,0.741,1.253,0.816,1.476,0.998,0.446,0.810,0.802,�쐼,7.2,��
2018/01/25,21:50,0.741,1.254,0.816,1.476,0.998,0.445,0.812,0.801,���쐼,7.6,��
2018/01/25,22:00,0.738,1.254,0.818,1.477,0.997,0.446,0.812,0.802,���쐼,7.1,��
2018/01/25,22:10,0.740,1.254,0.816,1.477,0.996,0.445,0.811,0.802,�쐼,7.7,��
2018/01/25,22:20,0.741,1.254,0.816,1.475,1.000,0.444,0.814,0.803,��쐼,8.0,��
2018/01/25,22:30,0.739,1.252,0.816,1.476,0.999,0.445,0.814,0.804,�쐼,7.2,��
2018/01/25,22:40,0.739,1.252,0.815,1.478,0.998,0.447,0.813,0.801,�쐼,8.3,��
2018/01/25,22:50,0.739,1.252,0.817,1.477,0.998,0.446,0.813,0.804,�쐼,8.3,��
2018/01/25,23:00,0.740,1.250,0.815,1.477,0.998,0.446,0.813,0.802,�쐼,8.3,��
2018/01/25,23:10,0.739,1.254,0.814,1.476,0.998,0.445,0.814,0.803,�쐼,7.3,��
2018/01/25,23:20,0.739,1.254,0.815,1.476,0.997,0.446,0.813,0.802,�쐼,7.3,��
2018/01/25,23:30,0.740,1.257,0.816,1.480,0.998,0.447,0.814,0.803,�쐼,6.6,��
2018/01/25,23:40,0.740,1.253,0.817,1.475,0.998,0.446,0.813,0.803,�쐼,5.8,��
2018/01/25,23:50,0.740,1.255,0.814,1.477,0.998,0.446,0.814,0.804,�쐼,6.6,��
